Flag for Canada Weather past 2 weeks in Saint-Jérôme, Quebec, Canada

Now
43 °F

Broken clouds.


Feels Like: 39 °F
Forecast: 33 / 57 °F
Wind: 6 mph from Southeast

Location: Montreal / Mirabel


UV Index: 3 (Moderate)

Visibility: 45 mi


Pressure: 30.50 "Hg

Humidity: 34%

Dew point: 16 °F

Location of Saint-JérômeLocation

Historic Weather in Saint-Jérôme

°F

Saint-Jérôme temperature yesterday

Maximum temperature yesterday: 50 °F (at 4:00 PM)
Minimum temperature yesterday: 37 °F (at 10:00 PM)
Average temperature yesterday: 43 °F

Past Weeks' High & Low Weather Summary

 TemperatureHumidityPressure
High61 °F (Apr 14, 4:00 PM)100% (Apr 8, 4:00 AM)30.80 "Hg (Apr 8, 4:00 AM)
Low18 °F (Apr 16, 5:00 AM)21% (Apr 19, 7:00 PM)29.23 "Hg (Apr 8, 2:00 PM)
Average39 °F65%30.02 "Hg
* Reported Apr 5 10:00 AM — Apr 20 10:00 AM, Saint-Jérôme, Weather by CustomWeather, © 2014

Note: Actual official high and low records may vary slightly from our data, if they occured in-between our weather recording intervals... More about our weather records

Advertising

Historic Weather Conditions — Data for Previous 24 hours

 ConditionsComfort  
Time TempWeatherWind HumidityBarometerVisibility
10:00 AM
Apr 20
41 °FBroken clouds.6 mph33%30.53 "Hg45 mi
9:00 AM37 °FPartly sunny.6 mph41%30.53 "Hg45 mi
8:00 AM34 °FBroken clouds.6 mph51%30.53 "Hg45 mi
7:00 AM30 °FPassing clouds.3 mph51%30.52 "Hg45 mi
6:00 AM28 °FPassing clouds.3 mph55%30.52 "Hg45 mi
5:00 AM28 °FPassing clouds.2 mph64%30.50 "Hg25 mi
4:00 AM30 °FClear.3 mph55%30.51 "Hg25 mi
3:00 AM30 °FClear.3 mph55%30.49 "Hg25 mi
2:00 AM28 °FClear.2 mph59%30.48 "Hg25 mi
1:00 AM32 °FClear.No wind51%30.49 "Hg25 mi
12:00 AM36 °FClear.2 mph38%30.48 "Hg25 mi
11:00 PM
Apr 19
37 °FClear.5 mph38%30.46 "Hg25 mi
10:00 PM37 °FClear.3 mph41%30.45 "Hg25 mi
9:00 PM43 °FPassing clouds.5 mph29%30.43 "Hg25 mi
8:00 PM45 °FPassing clouds.5 mph29%30.41 "Hg25 mi
7:00 PM48 °FPassing clouds.10 mph21%30.39 "Hg45 mi
6:00 PM50 °FPassing clouds.7 mph24%30.38 "Hg45 mi
5:00 PM50 °FPassing clouds.13 mph25%30.37 "Hg45 mi
4:00 PM50 °FPassing clouds.10 mph32%30.36 "Hg45 mi
3:00 PM48 °FPassing clouds.12 mph34%30.37 "Hg45 mi
2:00 PM48 °FPassing clouds.12 mph34%30.36 "Hg45 mi
1:00 PM46 °FPassing clouds.12 mph40%30.36 "Hg45 mi
12:00 PM45 °FScattered clouds.10 mph46%30.36 "Hg45 mi
11:00 AM45 °FPartly sunny.13 mph49%30.35 "Hg45 mi
Weather by CustomWeather, © 2014

See weather overview